Regional Weather Roundup
Issued by NWS

Home | Current Version | Previous Version | Graphics & Text | Print | Product List | Glossary On
Versions: 1 2 3 4 5 6 7 8 9 10 11 12 13 14 15 16 17 18 19 20 21 22 23 24 25 26 27 28 29 30 31 32 33 34 35 36 37 38 39 40 41 42 43 44 45 46 47 48 49 50
985
ASUS44 KJAN 210203
RWRMS

MISSISSIPPI HOURLY WEATHER ROUNDUP
NATIONAL WEATHER SERVICE JACKSON MS
900 PM CDT WED AUG 20 2014

NOTE: "FAIR: INDICATES FEW OR NO CLOUDS BELOW 12,000 FEET WITH NO
SIGNIFICANT WEATHER AND/OR OBSTRUCTIONS TO VISIBILITY.

MSZ001>002-007>008-010>013-018>021-025>028-034>036-210300-
NORTHWEST MISSISSIPPI

CITY           SKY/WX    TMP DP  RH WIND       PRES   REMARKS
CLARKSDALE     FAIR      81  75  83 CALM      30.03R
CLEVELAND      FAIR      82  75  79 S5        30.02R
GREENWOOD      CLEAR     80  75  84 CALM      30.03R
GREENVILLE     CLEAR     80  73  79 S3        30.01R
GRENADA        FAIR      79  72  78 CALM      30.05R
OLIVE BRANCH   CLEAR     79  75  89 S6        30.05R
OXFORD         FAIR      79  73  83 CALM      30.08R
TUNICA         CLEAR     77  73  88 S6        30.03R
$$

MSZ003>006-009-014>017-022>024-029>033-037>039-210300-
NORTHEAST MISSISSIPPI

CITY           SKY/WX    TMP DP  RH WIND       PRES   REMARKS
BELMONT        FAIR      78  75  90 CALM      30.08R
COLUMBUS AFB   CLEAR     80  74  81 CALM      30.06R
CORINTH        FAIR      77  73  88 CALM      30.06R
GOLDN TRIANGLE MOCLDY    88  72  58 NE3       30.07R HX  94
STARKVILLE     FAIR      79  72  78 CALM      30.06R
TUPELO         CLEAR     83  73  72 CALM      30.06R
$$

MSZ040-058-210300-
CENTRAL MISSISSIPPI

CITY           SKY/WX    TMP DP  RH WIND       PRES   REMARKS
JACKSON INTL   CLEAR     80  72  76 CALM      30.05R
JACKSON HAWKNS CLEAR     83  72  69 CALM      30.05R
MERIDIAN KEY   CLEAR     80  74  81 CALM      30.07R
MERIDIAN NAS   CLEAR     80  73  79 CALM      30.07R
RAYMOND        FAIR      79  73  83 CALM      30.03R
VICKSBURG      PTCLDY    76  73  91 SW3       30.02R
$$

MSZ059>079-210300-
SOUTH MISSISSIPPI

CITY           SKY/WX    TMP DP  RH WIND       PRES   REMARKS
BROOKHAVEN     FAIR      81  73  78 SW6       30.08R
COLUMBIA       HAZE      81  75  83 MISG      30.07R VSB<1/4
HATTIESBURG    CLEAR     85  75  72 SW7       30.07R HX  93
MCCOMB         MOCLDY    79  72  79 SW3       30.08R
NATCHEZ        CLOUDY    81  72  74 S6        30.07R
PINE BELT      CLEAR     82  72  69 SW5       30.09R
$$

MSZ080>082-210300-
COASTAL MISSISSIPPI

CITY           SKY/WX    TMP DP  RH WIND       PRES   REMARKS
BILOXI         PTCLDY    85  76  75 SW9       30.07R HX  94
PASCAGOULA     CLEAR     81  76  84 CALM      30.07R
GULFPORT       PTCLDY    86  75  69 SW8       30.06R HX  95
$$



USA.gov is the U.S. government's official web portal to all federal, state and local government web resources and services.